Showing default

COSMOS 2448 (GLONASS), 33468

Orbit data source: Space-Track

COSMOS 2448 (GLONASS), 33468 is a Commonwealth of Independent States-origin payload satellite in MEO that was launched on Thu, 25 Dec 2008 UTC via a PROTON-M/DM-2 launch vehicle from the Tyuratam Missile And Space Complex (TTMTR). Payload-class satellites include a variety of spacecraft equipped with specific instruments for various scientific and technological missions. These include communications satellites like Starlink; space stations such as the ISS; scientific satellites like the Hubble; Earth observation satellites from companies like Planet Labs, Umbra, and HawkEye 360; GPS; miniature CubeSats for education and research; and military/defense satellites.

Loading next visibility...
Identifier
33468, 2008-067C
Orbit
MEO
Country
Flag of CISCIS
Related business
Manufacturer
Resehetnev ISS
Mission
Non-operational Defense Navigation
Bus & Motor
URAGAN, Unknown motor
Mass
1,450 kg wet, ~1,200 kg dry
Launch date (UTC)
2008-12-25 (17 years ago)
Launch vehicle
PROTON-M/DM-2
Launch site
Tyuratam Missile And Space Complex (TTMTR)
Object type
Payload
Rocket body
Debris
Shape & HBR
Cyl + 1 Ant + 2 Pan, 3.9 m
Radar Cross Section
8.467 m², Large (>1 m²)

Expand to show TLE details & history
Last TLE update: 4 days ago

TLE from 4 days ago
0 COSMOS 2448 (GLONASS)
1 33468U 08067C   26169.02799933 -.00000027  00000-0  00000+0 0  9990
2 33468  64.8158  69.2489 0001559 211.4696 148.5638  2.13116563136053
Epoch: 2026-06-18T00:40Z
TLE epoch observation values (Epoch: 2026-06-18T00:40:19.142Z)
Latitude
Longitude
152.90655°
Altitude
19,132.68 km
Speed
3.953 km/s
True Right ascension
04h 37m 03s
True Declination
0° 00' 00"
Sunlit
Object was in daylight at epoch
Visualization orbit readout
Latitude
Unknown
Longitude
Unknown
Altitude
Unknown
Speed
Unknown
Apparent Right ascension
Unknown
Apparent Declination
Unknown
Sunlit
N/A
Visualization observer readout
Local Sidereal Time
23:20:01
Azimuth
Unknown
Elevation
Unknown
Doppler factor
Unknown
Orbital elements
Apogee altitude
19,132.323 km
Perigee altitude
19,124.37 km
Semi-major axis
25,506.484 km
Eccentricity
0.00016
Inclination
64.8158°
RAAN
69.2489°
Arg. of periapsis
211.4696°
True anomaly
148.57312°
Mean anomaly
148.5638°
Eccentric anomaly
148.56846°
Mean motion
0.5328 °/min
Orbital period
675.67 mins
BSTAR
0
Loading maneuver chart data...
Computing Atmospheric mass density...
Loading historical data...
Loading historical data...
Loading historical data...
Loading historical data...
Loading historical data...
Loading historical data...
Loading historical data...

Documentation

Showing up to 5 results
|